Regional Weather Roundup
Issued by NWS

Home | Current Version | Previous Version | Graphics & Text | Print | Product List | Glossary On
Versions: 1 2 3 4 5 6 7 8 9 10 11 12 13 14 15 16 17 18 19 20 21 22 23 24 25 26 27 28 29 30 31 32 33 34 35 36 37 38 39 40 41 42 43 44 45 46 47 48 49 50
000
ASUS43 KMKX 220200
RWRWI

WISCONSIN REGIONAL WEATHER ROUNDUP
NATIONAL WEATHER SERVICE MILWAUKEE/SULLIVAN WI
900 PM CDT SUN SEP 21 2014

NOTE: "FAIR" INDICATES FEW OR NO CLOUDS BELOW 12,000 FEET WITH NO
SIGNIFICANT WEATHER AND/OR OBSTRUCTIONS TO VISIBILITY.

WIZ001-002-006>008-014>016-023>028-220300-
NORTHWEST WISCONSIN

CITY           SKY/WX    TMP DP  RH WIND       PRES   REMARKS
SUPERIOR ARPT  CLEAR     50  45  85 NW5       30.17R
ASHLAND        CLEAR     42  41  96 CALM      30.18R
HAYWARD        CLEAR     46  44  93 CALM      30.18R
SIREN          CLEAR     51  48  90 CALM      30.19R
RICE LAKE      CLEAR     49  46  90 CALM      30.19R
LADYSMITH      CLEAR     47  43  88 CALM      30.18S
EAU CLAIRE     NOT AVBL
MENOMONIE      CLEAR     55  47  74 W5        30.18R
NEW RICHMOND   CLEAR     50  46  85 CALM      30.19S
OSCEOLA        CLEAR     53  48  82 CALM      30.21S
$$

WIZ003>005-009-010-017-018-220300-
NORTH CENTRAL WISCONSIN

CITY           SKY/WX    TMP DP  RH WIND       PRES   REMARKS
WOODRUFF       CLEAR     42  39  91 CALM      30.15S
RHINELANDER    CLEAR     36  35  96 W3        30.16R FOG
EAGLE RIVER    CLEAR     38  38  99 CALM      30.14R
LAND O LAKES   CLEAR     37  37  97 CALM      30.14S
PHILLIPS       CLEAR     41  41 100 CALM      30.16S
TOMAHAWK       CLEAR     37  36  94 CALM      30.16S
MEDFORD        CLEAR     43  39  86 CALM      30.17R
MERRILL        CLEAR     41  39  93 CALM      30.17R
$$

WIZ029-030-035-036-043>047-220300-
CENTRAL WISCONSIN

CITY           SKY/WX    TMP DP  RH WIND       PRES   REMARKS
WAUSAU         CLEAR     47  38  71 NW5       30.16R
MOSINEE        CLEAR     46  39  76 N6        30.17R
MARSHFIELD     CLEAR     50  39  66 NE7       30.17R
STEVENS POINT  CLEAR     46  40  77 N3        30.17R
WAUPACA        CLEAR     51  42  70 NW3       30.16R
WAUTOMA        NOT AVBL
WISC RAPIDS    CLEAR     50  41  71 N8        30.18R
CAMP DOUGLAS   NOT AVBL
$$

WIZ011>013-019>022-031-037>040-048>050-220300-
NORTHEAST WISCONSIN

CITY           SKY/WX    TMP DP  RH WIND       PRES   REMARKS
ANTIGO         CLEAR     43  38  84 NW5       30.15S
STURGEON BAY   CLEAR     46  37  71 N12       30.13S
GREEN BAY      CLEAR     47  41  80 N7        30.15R
MANITOWOC      NOT AVBL
APPLETON       PTCLDY    48  39  71 N9        30.15R
CLINTONVILLE   CLEAR     46  41  81 N3        30.15R
OSHKOSH        CLEAR     50  41  71 N9        30.14R
$$

WIZ032>034-041-042-053>061-220300-
SOUTHWEST WISCONSIN

CITY           SKY/WX    TMP DP  RH WIND       PRES   REMARKS
LA CROSSE      CLEAR     55  46  71 N6        30.17R
SPARTA         CLEAR     47  45  91 CALM      30.17R
VIROQUA        FAIR      51  45  80 N5        30.16S
BOSCOBEL       CLEAR     51  48  89 CALM      30.16R
PRAIRIE DU CHI CLEAR     52  48  87 E3        30.16R
PLATTEVILLE    FAIR      54  47  76 NW5       30.16R
$$

WIZ056-057-062-063-064-067-068-220300-
SOUTH CENTRAL WISCONSIN

CITY           SKY/WX    TMP DP  RH WIND       PRES   REMARKS
BARABOO/DELLS  CLEAR     53  43  67 NW3       30.15R
LONE ROCK      NOT AVBL
WATERTOWN      PTCLDY    51  46  81 CALM      30.12R
MADISON        CLEAR     52  45  77 CALM      30.14R
MIDDLETON      FAIR      52  44  73 CALM      30.14R
MONROE         CLEAR     54  45  71 NW5       30.13R
JANESVILLE     CLEAR     54  45  71 CALM      30.12R
$$

WIZ051-052-058>065-066-070>072-220300-
SOUTHEAST WISCONSIN

CITY           SKY/WX    TMP DP  RH WIND       PRES   REMARKS
MILWAUKEE      PTCLDY    53  41  63 N8        30.12R
WAUKESHA       CLEAR     48  43  81 MISG      30.14
MILWAUKEE/TIMM CLEAR     50  43  76 CALM      30.13R
RACINE         CLEAR     51  43  74 NW7       30.13R
BURLINGTON     CLEAR     44  43  95 CALM      30.12R
KENOSHA        CLEAR     46  44  93 NW3       30.12R
FOND DU LAC    CLEAR     50  42  74 N8        30.14R
SHEBOYGAN      CLEAR     47  42  83 N5        30.13R
WEST BEND      CLEAR     46  41  81 NW3       30.12R
JUNEAU         PTCLDY    50  43  77 NW5       30.14R
$$

LSZ147-162-220300-
LAKE SUPERIOR

STATION/POSITION TIME  TEMP    WIND        PRES    WAVE
                       AIR SEA DIR/SP/G            HT/PER
                 (UTC) (F)     (DEG/KT/KT) (MB)    (FT/S)
W MID LAKE BUOY  0050   51 48  240/ 10/ 12 1020.5R   2/ 6
DEVILS ISLAND    0100   53     260/  8/  9 1021.4R
PORT WING        0100   51     170/  3/  4 1021.3R
SAXON HARBOR     0100   48     200/  3/  6 1021.0S
$$

LMZ867-665-643>646-220300-
LAKE MICHIGAN

STATION/POSITION TIME  TEMP    WIND        PRES    WAVE
                       AIR SEA DIR/SP/G            HT/PER
                 (UTC) (F)     (DEG/KT/KT) (MB)    (FT/S)
N MID LAKE BUOY  0050   48 57  340/ 25/ 29 1018.5R   5/ 6
NORTHPORT PIER   0125   49     340/ 21     1019.6R
KEWAUNEE LAKESHO 0100   49     360/  6/  9 1018.6R
SHEBOYGAN LAKESH 0100   53 51  350/  8/  9 1019.9R
PORT WASHINGTON  0100   54     330/  3/  5 1020.0R
ATWATER BUOY     0100   56     340/ 10/ 14 1020.1R
MILWAUKEE LAKESH 0100   55     340/  7/  9   N/A
S MID LAKE BUOY  0050   56 62  350/ 17/ 21 1018.3R   8/ 7
KENOSHA   LAKESH 0100   55     340/  7/  9 1019.0R
$$

TC  - TEMPERATURE IN CELSIUS
VSB - VISIBILITY IN STATUTE MILES
WCI - WIND CHILL INDEX
HX  - HEAT INDEX



USA.gov is the U.S. government's official web portal to all federal, state and local government web resources and services.